• In Slovakia
  • List of Countries
  • For 7 days
  • Water Temperature
  • Satellite Maps
  • Weather Map
  • Weather Widgets
  • user-avatar
    Login

    Hourly Weather Cwiklice

    Today, 21 August, Tuesday

    Time Temperature Precipitation Wind Pressure Humidity
    00:00 +21°C° 0.1 mm 2 mps 741 mmHg 76%
    01:00 +21°C° 0.1 mm 1 mps 741 mmHg 80%
    02:00 +21°C° 0 mm 1 mps 741 mmHg 82%
    03:00 +20°C° 0 mm 1 mps 742 mmHg 83%
    04:00 +20°C° 0 mm 1 mps 742 mmHg 85%
    05:00 +20°C° 0 mm 1 mps 742 mmHg 82%
    06:00 +21°C° 0 mm 1 mps 742 mmHg 79%
    07:00 +21°C° 0 mm 2 mps 742 mmHg 76%
    08:00 +23°C° 0 mm 2 mps 743 mmHg 70%
    09:00 +24°C° 0 mm 2 mps 743 mmHg 64%
    10:00 +26°C° 0 mm 2 mps 743 mmHg 58%
    11:00 +26°C° 0 mm 2 mps 743 mmHg 58%
    12:00 +26°C° 0 mm 3 mps 743 mmHg 58%
    13:00 +26°C° 0 mm 3 mps 743 mmHg 57%
    14:00 +26°C° 0 mm 3 mps 743 mmHg 57%
    15:00 +26°C° 0 mm 3 mps 742 mmHg 56%
    16:00 +26°C° 0 mm 2 mps 742 mmHg 55%
    17:00 +25°C° 0 mm 2 mps 742 mmHg 60%
    18:00 +23°C° 0 mm 2 mps 742 mmHg 65%
    19:00 +22°C° 0 mm 1 mps 743 mmHg 70%
    20:00 +21°C° 0 mm 1 mps 743 mmHg 72%
    21:00 +20°C° 0 mm 1 mps 743 mmHg 75%
    22:00 +20°C° 0 mm 1 mps 743 mmHg 77%
    23:00 +19°C° 0 mm 1 mps 743 mmHg 78%

    Tomorrow, 22 August, Wednesday

    Time Temperature Precipitation Wind Pressure Humidity
    00:00 +19°C° 0 mm 1 mps 743 mmHg 79%
    01:00 +19°C° 0 mm 1 mps 743 mmHg 80%
    02:00 +18°C° 0 mm 1 mps 743 mmHg 81%
    03:00 +18°C° 0 mm 1 mps 743 mmHg 81%
    04:00 +18°C° 0 mm 1 mps 743 mmHg 81%
    05:00 +19°C° 0 mm 1 mps 744 mmHg 77%
    06:00 +20°C° 0 mm 1 mps 744 mmHg 73%
    07:00 +20°C° 0 mm 2 mps 744 mmHg 69%
    08:00 +23°C° 0 mm 2 mps 744 mmHg 63%
    09:00 +24°C° 0 mm 2 mps 744 mmHg 57%
    10:00 +26°C° 0 mm 3 mps 744 mmHg 51%
    11:00 +27°C° 0 mm 2 mps 744 mmHg 49%
    12:00 +27°C° 0 mm 2 mps 743 mmHg 46%
    13:00 +28°C° 0 mm 2 mps 743 mmHg 44%
    14:00 +28°C° 0 mm 2 mps 743 mmHg 45%
    15:00 +28°C° 0 mm 2 mps 742 mmHg 45%
    16:00 +28°C° 0 mm 2 mps 742 mmHg 45%
    17:00 +26°C° 0 mm 2 mps 742 mmHg 51%
    18:00 +24°C° 0 mm 2 mps 742 mmHg 57%
    19:00 +23°C° 0 mm 2 mps 742 mmHg 63%
    20:00 +21°C° 0 mm 2 mps 742 mmHg 67%
    21:00 +20°C° 0 mm 2 mps 742 mmHg 70%
    22:00 +19°C° 0 mm 2 mps 742 mmHg 74%
    23:00 +19°C° 0 mm 2 mps 742 mmHg 76%

    Day after tomorrow, 23 August, Thursday

    Time Temperature Precipitation Wind Pressure Humidity
    00:00 +18°C° 0 mm 2 mps 742 mmHg 78%
    01:00 +19°C° 0 mm 1 mps 742 mmHg 81%
    02:00 +19°C° 0 mm 1 mps 742 mmHg 82%
    03:00 +19°C° 0 mm 1 mps 741 mmHg 83%
    04:00 +19°C° 0 mm 1 mps 741 mmHg 84%
    05:00 +20°C° 0 mm 1 mps 741 mmHg 79%
    06:00 +21°C° 0 mm 1 mps 741 mmHg 75%
    07:00 +23°C° 0 mm 1 mps 741 mmHg 70%
    08:00 +25°C° 0 mm 1 mps 741 mmHg 63%
    09:00 +27°C° 0 mm 1 mps 741 mmHg 55%
    10:00 +29°C° 0 mm 1 mps 741 mmHg 48%
    11:00 +30°C° 0.2 mm 1 mps 740 mmHg 46%
    12:00 +31°C° 0.2 mm 2 mps 740 mmHg 45%
    13:00 +31°C° 0.2 mm 2 mps 740 mmHg 43%
    14:00 +31°C° 0.1 mm 2 mps 739 mmHg 45%
    15:00 +31°C° 0.1 mm 2 mps 739 mmHg 46%
    16:00 +31°C° 0.1 mm 1 mps 739 mmHg 47%
    17:00 +29°C° 0.1 mm 2 mps 739 mmHg 50%
    18:00 +28°C° 0.1 mm 2 mps 739 mmHg 54%
    19:00 +27°C° 0.1 mm 2 mps 739 mmHg 58%
    20:00 +26°C° 0.1 mm 2 mps 738 mmHg 61%
    21:00 +25°C° 0.1 mm 2 mps 738 mmHg 65%
    22:00 +24°C° 0.1 mm 2 mps 738 mmHg 68%
    23:00 +23°C° 0.1 mm 2 mps 738 mmHg 69%

    24 August, Friday

    Time Temperature Precipitation Wind Pressure Humidity
    00:00 +23°C° 0.1 mm 2 mps 738 mmHg 70%
    01:00 +21°C° 0.1 mm 2 mps 738 mmHg 71%
    02:00 +21°C° 0.4 mm 2 mps 737 mmHg 73%
    03:00 +21°C° 0.4 mm 2 mps 737 mmHg 75%
    04:00 +20°C° 0.4 mm 2 mps 737 mmHg 77%
    05:00 +21°C° 0.5 mm 2 mps 737 mmHg 76%
    06:00 +23°C° 0.5 mm 2 mps 737 mmHg 75%
    07:00 +23°C° 0.5 mm 2 mps 737 mmHg 75%
    08:00 +25°C° 0.3 mm 3 mps 737 mmHg 68%
    09:00 +27°C° 0.3 mm 3 mps 737 mmHg 62%
    10:00 +29°C° 0.3 mm 4 mps 737 mmHg 56%
    11:00 +29°C° 0.5 mm 4 mps 736 mmHg 54%
    12:00 +29°C° 0.5 mm 4 mps 736 mmHg 52%
    13:00 +30°C° 0.5 mm 3 mps 736 mmHg 50%
    14:00 +29°C° 0.5 mm 3 mps 736 mmHg 54%
    15:00 +28°C° 0.5 mm 3 mps 735 mmHg 58%
    16:00 +27°C° 0.5 mm 3 mps 735 mmHg 61%
    17:00 +26°C° 1 mm 3 mps 735 mmHg 68%
    18:00 +24°C° 1 mm 2 mps 735 mmHg 75%
    19:00 +21°C° 1 mm 2 mps 735 mmHg 83%
    20:00 +21°C° 0.5 mm 2 mps 735 mmHg 85%
    21:00 +20°C° 0.5 mm 2 mps 736 mmHg 87%
    22:00 +20°C° 0.5 mm 2 mps 736 mmHg 89%
    23:00 +19°C° 1.1 mm 2 mps 736 mmHg 89%

    25 August, Saturday

    Time Temperature Precipitation Wind Pressure Humidity
    00:00 +19°C° 1.1 mm 2 mps 736 mmHg 89%
    01:00 +19°C° 1.1 mm 2 mps 736 mmHg 89%
    02:00 +18°C° 0.4 mm 3 mps 737 mmHg 89%
    03:00 +17°C° 0.4 mm 3 mps 737 mmHg 89%
    04:00 +15°C° 0.4 mm 4 mps 737 mmHg 90%
    05:00 +16°C° 0.2 mm 3 mps 737 mmHg 88%
    06:00 +16°C° 0.2 mm 3 mps 738 mmHg 87%
    07:00 +15°C° 0.2 mm 2 mps 738 mmHg 86%
    08:00 +16°C° 0 mm 2 mps 738 mmHg 79%
    09:00 +17°C° 0 mm 2 mps 738 mmHg 72%
    10:00 +18°C° 0 mm 2 mps 738 mmHg 65%
    11:00 +19°C° 0 mm 2 mps 738 mmHg 59%
    12:00 +20°C° 0 mm 2 mps 738 mmHg 54%
    13:00 +21°C° 0 mm 2 mps 738 mmHg 48%
    14:00 +21°C° 0 mm 2 mps 738 mmHg 48%
    15:00 +22°C° 0 mm 1 mps 737 mmHg 47%
    16:00 +22°C° 0 mm 1 mps 737 mmHg 47%
    17:00 +20°C° 0 mm 1 mps 737 mmHg 51%
    18:00 +19°C° 0 mm 1 mps 736 mmHg 55%
    19:00 +18°C° 0 mm 1 mps 736 mmHg 59%
    20:00 +16°C° 0 mm 1 mps 736 mmHg 61%
    21:00 +16°C° 0 mm 1 mps 736 mmHg 63%
    22:00 +15°C° 0 mm 1 mps 736 mmHg 66%
    23:00 +15°C° 0 mm 1 mps 736 mmHg 67%

    26 August, Sunday

    Time Temperature Precipitation Wind Pressure Humidity
    00:00 +15°C° 0 mm 2 mps 736 mmHg 68%
    01:00 +16°C° 0 mm 2 mps 735 mmHg 70%
    02:00 +15°C° 0 mm 2 mps 735 mmHg 71%
    03:00 +15°C° 0 mm 2 mps 735 mmHg 73%
    04:00 +15°C° 0 mm 2 mps 735 mmHg 74%
    05:00 +14°C° 0.1 mm 3 mps 735 mmHg 72%
    06:00 +16°C° 0.1 mm 3 mps 734 mmHg 70%
    07:00 +17°C° 0.1 mm 3 mps 734 mmHg 67%
    08:00 +17°C° 0.2 mm 3 mps 734 mmHg 67%
    09:00 +17°C° 0.2 mm 3 mps 734 mmHg 67%
    10:00 +17°C° 0.2 mm 3 mps 734 mmHg 66%
    11:00 +18°C° 0 mm 4 mps 734 mmHg 63%
    12:00 +19°C° 0 mm 4 mps 733 mmHg 60%
    13:00 +21°C° 0 mm 4 mps 733 mmHg 57%
    14:00 +20°C° 0.3 mm 4 mps 733 mmHg 64%
    15:00 +19°C° 0.3 mm 4 mps 733 mmHg 70%
    16:00 +18°C° 0.3 mm 4 mps 733 mmHg 76%
    17:00 +17°C° 0.5 mm 4 mps 733 mmHg 80%
    18:00 +17°C° 0.5 mm 4 mps 733 mmHg 84%
    19:00 +15°C° 0.5 mm 4 mps 733 mmHg 88%
    20:00 +15°C° 0.1 mm 4 mps 734 mmHg 86%
    21:00 +14°C° 0.1 mm 5 mps 734 mmHg 83%
    22:00 +14°C° 0.1 mm 5 mps 734 mmHg 81%
    23:00 +13°C° 0 mm 5 mps 735 mmHg 80%
    Show more